This is the latest recevied weather packets stored in our database for station/object K0SNA. If no packets are shown the sender has not sent any weather packets the latest 10 day(s).
| Time | Temp. | Humidity | Pressure | Rain* | Wind** | Luminosity | Snow |
|---|---|---|---|---|---|---|---|
| 1777903341 | 15.56° C | 43% | 998.5 hPa | 0 mm | - | 294 W/m² | - |
| 1777903038 | 15.56° C | 44% | 998.5 hPa | 0 mm | - | 217 W/m² | - |
| 1777902735 | 15.56° C | 43% | 998.3 hPa | 0 mm | - | 269 W/m² | - |
| 1777902432 | 15.56° C | 42% | 998 hPa | 0 mm | - | 228 W/m² | - |
| 1777902128 | 16.11° C | 45% | 998.1 hPa | 0 mm | - | 177 W/m² | - |
| 1777901827 | 16.67° C | 48% | 997.9 hPa | 0 mm | - | 228 W/m² | - |
| 1777901524 | 16.11° C | 48% | 998 hPa | 0 mm | - | 246 W/m² | - |
| 1777901222 | 16.11° C | 48% | 997.9 hPa | 0 mm | - | 234 W/m² | - |
| 1777900919 | 16.11° C | 48% | 997.8 hPa | 0 mm | - | 224 W/m² | - |
| 1777900616 | 16.11° C | 48% | 997.8 hPa | 0 mm | - | 200 W/m² | - |
| 1777900313 | 16.11° C | 48% | 997.5 hPa | 0 mm | - | 190 W/m² | - |
| 1777900010 | 15.56° C | 48% | 997.2 hPa | 0 mm | - | 176 W/m² | - |
| 1777899706 | 15.56° C | 48% | 997.5 hPa | 0 mm | - | 153 W/m² | - |
| 1777899404 | 15° C | 48% | 997.5 hPa | 0 mm | - | 146 W/m² | - |
| 1777899101 | 15° C | 48% | 997.6 hPa | 0 mm | - | 117 W/m² | - |
| 1777898798 | 15° C | 48% | 997.6 hPa | 0 mm | - | 68 W/m² | - |
| 1777898496 | 15° C | 47% | 997.7 hPa | 0 mm | - | 71 W/m² | - |
| 1777898193 | 15° C | 47% | 997.5 hPa | 0 mm | - | 97 W/m² | - |
| 1777897890 | 15° C | 46% | 997.2 hPa | 0 mm | - | 89 W/m² | - |
| 1777897586 | 15° C | 46% | 997.2 hPa | 0 mm | - | 88 W/m² | - |
| 1777897282 | 15° C | 46% | 997 hPa | 0 mm | - | 91 W/m² | - |
| 1777896978 | 15° C | 45% | 997.2 hPa | 0 mm | - | 78 W/m² | - |
| 1777896675 | 15° C | 46% | 997.1 hPa | 0 mm | - | 69 W/m² | - |
| 1777896372 | 15° C | 46% | 997 hPa | 0 mm | - | 57 W/m² | - |
| 1777896070 | 15° C | 46% | 997 hPa | 0 mm | - | 46 W/m² | - |
* Rain latest hour (hover to see other rain measurements)
** Current wind speed in m/s (hover to see current wind gust speed)